Location: Dover
(48.8500°N, 53.9833°W)
Time: 15:22:39
(UTC+00:00)

Resurs 1-3 - Pass Details

Date: 14 November 2025
Orbit: 613 x 615 km, 97.7° (Epoch: 13 December)

Event Time Altitude Azimuth Distance (km) Brightness Sun altitude
Rises 22:20:33 0° 177° (S) 2,873 7.0 -23.6°
Reaches altitude 10° 22:22:46 10° 182° (S) 1,972 6.2 -24.0°
Maximum altitude 22:26:59 55° 260° (W) 748 4.2 -24.7°
Drops below altitude 10° 22:31:13 10° 338° (NNW) 1,987 6.4 -25.4°
Sets 22:33:28 0° 343° (NNW) 2,897 7.2 -25.7°
